START_TIME,STEP,MOV.,E45,t_acc.,ALAR?,t_acc.,A12,t_acc.,A24,t_acc.
1980-11-14 03:00:14.860 ,4,0,0.,4.8,15616.,4.8,0.,4.8,0.,4.8
1980-11-14 03:00:19.660 ,4,0,0.,4.8,15104.,4.8,0.,4.8,0.,4.8
1980-11-14 03:00:24.460 ,4,0,0.,4.8,15104.,4.8,0.,4.8,0.,4.8
1980-11-14 03:00:29.260 ,4,0,0.,4.8,14592.,4.8,0.,4.8,0.,4.8
1980-11-14 03:00:34.060 ,4,0,0.,4.8,15360.,4.8,0.,4.8,0.,4.8
1980-11-14 03:00:38.860 ,5,0,0.,4.8,14336.,4.8,0.,4.8,0.,4.8
1980-11-14 03:00:43.660 ,5,0,0.,4.8,14592.,4.8,0.,4.8,0.,4.8
1980-11-14 03:00:48.460 ,5,0,0.,4.8,14848.,4.8,0.,4.8,0.,4.8
1980-11-14 03:00:53.260 ,5,0,0.,4.8,15616.,4.8,0.,4.8,0.,4.8
1980-11-14 03:00:58.060 ,5,0,0.,4.8,15104.,4.8,0.,4.8,0.,4.8
1980-11-14 03:01:02.860 ,5,0,0.,4.8,14336.,4.8,0.,4.8,0.,4.8
1980-11-14 03:01:07.660 ,5,0,0.,4.8,14080.,4.8,0.,4.8,0.,4.8
1980-11-14 03:01:12.460 ,5,0,0.,4.8,14336.,4.8,0.,4.8,0.,4.8
1980-11-14 03:01:17.260 ,5,0,0.,4.8,13568.,4.8,0.,4.8,0.,4.8
1980-11-14 03:01:22.060 ,5,0,0.,4.8,14080.,4.8,0.,4.8,0.,4.8
1980-11-14 03:01:26.860 ,6,0,0.,4.8,13824.,4.8,0.,4.8,0.,4.8
1980-11-14 03:01:31.660 ,6,0,0.,4.8,14080.,4.8,0.,4.8,0.,4.8
1980-11-14 03:01:36.460 ,6,0,0.,4.8,14080.,4.8,0.,4.8,0.,4.8
1980-11-14 03:01:41.260 ,6,0,0.,4.8,14080.,4.8,0.,4.8,0.,4.8
1980-11-14 03:01:46.060 ,6,0,0.,4.8,13824.,4.8,0.,4.8,0.,4.8
1980-11-14 03:01:50.860 ,6,0,0.,4.8,14080.,4.8,0.,4.8,0.,4.8
1980-11-14 03:01:55.660 ,6,0,0.,4.8,14336.,4.8,0.,4.8,0.,4.8
1980-11-14 03:02:00.460 ,6,0,0.,4.8,14848.,4.8,1.,4.8,0.,4.8
1980-11-14 03:02:05.260 ,6,0,0.,4.8,14592.,4.8,0.,4.8,0.,4.8
1980-11-14 03:02:10.060 ,6,0,0.,4.8,14336.,4.8,0.,4.8,0.,4.8
1980-11-14 03:02:14.860 ,7,0,0.,4.8,13568.,4.8,0.,4.8,0.,4.8
1980-11-14 03:02:19.660 ,7,0,0.,4.8,14080.,4.8,0.,4.8,0.,4.8
1980-11-14 03:02:24.460 ,7,0,0.,4.8,13824.,4.8,0.,4.8,0.,4.8
1980-11-14 03:02:29.260 ,7,0,0.,4.8,14080.,4.8,0.,4.8,0.,4.8
1980-11-14 03:02:34.060 ,7,0,0.,4.8,14080.,4.8,0.,4.8,0.,4.8
1980-11-14 03:02:38.860 ,7,0,0.,4.8,15104.,4.8,0.,4.8,0.,4.8
1980-11-14 03:02:43.660 ,7,0,0.,4.8,14080.,4.8,0.,4.8,0.,4.8
1980-11-14 03:02:48.460 ,7,0,0.,4.8,14080.,4.8,0.,4.8,0.,4.8
1980-11-14 03:02:53.260 ,7,0,0.,4.8,14336.,4.8,0.,4.8,0.,4.8
1980-11-14 03:02:58.060 ,7,0,0.,4.8,14336.,4.8,0.,4.8,0.,4.8
1980-11-14 03:03:02.860 ,7,0,0.,4.8,14592.,4.8,0.,4.8,0.,4.8
1980-11-14 03:03:07.660 ,7,0,0.,4.8,14336.,4.8,0.,4.8,0.,4.8
1980-11-14 03:03:12.460 ,7,0,0.,4.8,14080.,4.8,0.,4.8,0.,4.8
1980-11-14 03:03:17.260 ,7,0,0.,4.8,14080.,4.8,0.,4.8,0.,4.8
1980-11-14 03:03:22.060 ,7,0,0.,4.8,14848.,4.8,0.,4.8,0.,4.8
1980-11-14 03:03:26.860 ,7,0,0.,4.8,14848.,4.8,0.,4.8,0.,4.8
1980-11-14 03:03:31.660 ,7,0,0.,4.8,15104.,4.8,0.,4.8,0.,4.8
1980-11-14 03:03:36.460 ,7,0,0.,4.8,15360.,4.8,0.,4.8,0.,4.8
1980-11-14 03:03:41.260 ,7,0,0.,4.8,15616.,4.8,0.,4.8,0.,4.8
1980-11-14 03:03:46.060 ,7,0,0.,4.8,15104.,4.8,0.,4.8,0.,4.8
1980-11-14 03:03:50.860 ,6,0,0.,4.8,15104.,4.8,0.,4.8,0.,4.8
1980-11-14 03:03:55.660 ,6,0,0.,4.8,15360.,4.8,0.,4.8,0.,4.8
1980-11-14 03:04:00.460 ,6,0,0.,4.8,15104.,4.8,0.,4.8,0.,4.8
1980-11-14 03:04:05.260 ,6,0,0.,4.8,16128.,4.8,0.,4.8,0.,4.8
1980-11-14 03:04:10.060 ,6,0,0.,4.8,14848.,4.8,0.,4.8,0.,4.8
1980-11-14 03:04:14.860 ,0,0,0.,4.8,14592.,4.8,0.,4.8,0.,4.8
1980-11-14 03:04:19.660 ,0,0,0.,4.8,14848.,4.8,0.,4.8,0.,4.8
1980-11-14 03:04:24.460 ,0,0,0.,4.8,15360.,4.8,0.,4.8,0.,4.8
1980-11-14 03:04:29.260 ,0,0,0.,4.8,15616.,4.8,0.,4.8,0.,4.8
1980-11-14 03:04:34.060 ,0,0,,0,,0,,0,,0
1980-11-14 03:07:02.860 ,0,0,0.,4.8,14848.,4.8,0.,4.8,0.,4.8
1980-11-14 03:07:07.660 ,0,0,0.,4.8,14080.,4.8,0.,4.8,0.,4.8
1980-11-14 03:07:12.460 ,0,0,0.,4.8,14848.,4.8,0.,4.8,0.,4.8
1980-11-14 03:07:17.260 ,0,0,0.,4.8,14080.,4.8,0.,4.8,0.,4.8
1980-11-14 03:07:22.060 ,0,0,0.,4.8,14592.,4.8,0.,4.8,0.,4.8
1980-11-14 03:07:26.860 ,0,0,0.,4.8,14080.,4.8,0.,4.8,0.,4.8
1980-11-14 03:07:31.660 ,0,0,0.,4.8,14592.,4.8,0.,4.8,0.,4.8
1980-11-14 03:07:36.460 ,0,0,0.,4.8,14336.,4.8,0.,4.8,0.,4.8
1980-11-14 03:07:41.260 ,0,0,0.,4.8,13824.,4.8,0.,4.8,0.,4.8
1980-11-14 03:07:46.060 ,0,0,0.,4.8,14592.,4.8,0.,4.8,0.,4.8
1980-11-14 03:07:50.860 ,1,0,0.,4.8,14848.,4.8,0.,4.8,0.,4.8
1980-11-14 03:07:55.660 ,1,0,0.,4.8,14848.,4.8,0.,4.8,0.,4.8
1980-11-14 03:08:00.460 ,1,0,0.,4.8,14848.,4.8,0.,4.8,0.,4.8
1980-11-14 03:08:05.260 ,1,0,0.,4.8,14592.,4.8,0.,4.8,0.,4.8
1980-11-14 03:08:10.060 ,1,0,0.,4.8,14080.,4.8,0.,4.8,0.,4.8
1980-11-14 03:08:14.860 ,1,0,0.,4.8,14336.,4.8,0.,4.8,0.,4.8
1980-11-14 03:08:19.660 ,1,0,0.,4.8,14336.,4.8,0.,4.8,0.,4.8
1980-11-14 03:08:24.460 ,1,0,0.,4.8,14080.,4.8,0.,4.8,0.,4.8
1980-11-14 03:08:29.260 ,1,0,0.,4.8,14080.,4.8,0.,4.8,0.,4.8
1980-11-14 03:08:34.060 ,1,0,0.,4.8,15104.,4.8,0.,4.8,0.,4.8
1980-11-14 03:08:38.860 ,0,0,0.,4.8,14336.,4.8,0.,4.8,0.,4.8
1980-11-14 03:08:43.660 ,0,0,0.,4.8,14336.,4.8,0.,4.8,0.,4.8
1980-11-14 03:08:48.460 ,0,0,0.,4.8,14336.,4.8,0.,4.8,0.,4.8
1980-11-14 03:08:53.260 ,0,0,0.,4.8,15104.,4.8,0.,4.8,0.,4.8
1980-11-14 03:08:58.060 ,0,0,0.,4.8,14848.,4.8,0.,4.8,0.,4.8
1980-11-14 03:09:02.860 ,0,0,0.,4.8,14848.,4.8,0.,4.8,0.,4.8
1980-11-14 03:09:07.660 ,0,0,0.,4.8,14336.,4.8,0.,4.8,0.,4.8
1980-11-14 03:09:12.460 ,0,0,0.,4.8,14592.,4.8,0.,4.8,0.,4.8
1980-11-14 03:09:17.260 ,0,0,0.,4.8,14336.,4.8,0.,4.8,0.,4.8
1980-11-14 03:09:22.060 ,0,0,0.,4.8,14848.,4.8,0.,4.8,0.,4.8
1980-11-14 03:09:26.860 ,0,0,0.,4.8,14592.,4.8,0.,4.8,0.,4.8
1980-11-14 03:09:31.660 ,0,0,0.,4.8,14336.,4.8,0.,4.8,0.,4.8
1980-11-14 03:09:36.460 ,0,0,0.,4.8,13824.,4.8,0.,4.8,0.,4.8
1980-11-14 03:09:41.260 ,0,0,0.,4.8,14336.,4.8,0.,4.8,0.,4.8
1980-11-14 03:09:46.060 ,0,0,0.,4.8,14592.,4.8,0.,4.8,0.,4.8
1980-11-14 03:09:50.860 ,0,0,0.,4.8,14336.,4.8,0.,4.8,0.,4.8
1980-11-14 03:09:55.660 ,0,0,0.,4.8,14080.,4.8,0.,4.8,0.,4.8
1980-11-14 03:10:00.460 ,0,0,0.,4.8,14592.,4.8,0.,4.8,0.,4.8
1980-11-14 03:10:05.260 ,0,0,0.,4.8,15104.,4.8,0.,4.8,0.,4.8
1980-11-14 03:10:10.060 ,0,0,0.,4.8,14080.,4.8,0.,4.8,0.,4.8
1980-11-14 03:10:14.860 ,1,0,0.,4.8,13568.,4.8,0.,4.8,0.,4.8
1980-11-14 03:10:19.660 ,1,0,0.,4.8,14848.,4.8,0.,4.8,0.,4.8
1980-11-14 03:10:24.460 ,1,0,0.,4.8,14080.,4.8,0.,4.8,0.,4.8
1980-11-14 03:10:29.260 ,1,0,0.,4.8,14592.,4.8,0.,4.8,0.,4.8
1980-11-14 03:10:34.060 ,1,0,0.,4.8,14592.,4.8,0.,4.8,0.,4.8
1980-11-14 03:10:38.860 ,1,0,0.,4.8,14592.,4.8,0.,4.8,0.,4.8
1980-11-14 03:10:43.660 ,1,0,0.,4.8,14080.,4.8,0.,4.8,0.,4.8
1980-11-14 03:10:48.460 ,1,0,0.,4.8,13568.,4.8,1.,4.8,0.,4.8
1980-11-14 03:10:53.260 ,1,0,0.,4.8,13568.,4.8,0.,4.8,0.,4.8
1980-11-14 03:10:58.060 ,1,0,0.,4.8,14080.,4.8,0.,4.8,0.,4.8
1980-11-14 03:11:02.860 ,2,0,0.,4.8,14080.,4.8,0.,4.8,0.,4.8
1980-11-14 03:11:07.660 ,2,0,0.,4.8,13312.,4.8,0.,4.8,0.,4.8
1980-11-14 03:11:12.460 ,2,0,0.,4.8,13824.,4.8,0.,4.8,0.,4.8
1980-11-14 03:11:17.260 ,2,0,0.,4.8,14080.,4.8,0.,4.8,0.,4.8
1980-11-14 03:11:22.060 ,2,0,0.,4.8,13824.,4.8,0.,4.8,0.,4.8
1980-11-14 03:11:26.860 ,2,0,0.,4.8,14336.,4.8,0.,4.8,0.,4.8
1980-11-14 03:11:31.660 ,2,0,0.,4.8,14080.,4.8,0.,4.8,0.,4.8
1980-11-14 03:11:36.460 ,2,0,0.,4.8,14080.,4.8,0.,4.8,0.,4.8
1980-11-14 03:11:41.260 ,2,0,0.,4.8,15104.,4.8,0.,4.8,0.,4.8
1980-11-14 03:11:46.060 ,2,0,0.,4.8,14848.,4.8,0.,4.8,0.,4.8
1980-11-14 03:11:50.860 ,3,0,0.,4.8,14336.,4.8,0.,4.8,0.,4.8
1980-11-14 03:11:55.660 ,3,0,0.,4.8,15360.,4.8,0.,4.8,0.,4.8
1980-11-14 03:12:00.460 ,3,0,0.,4.8,15104.,4.8,0.,4.8,0.,4.8
1980-11-14 03:12:05.260 ,3,0,0.,4.8,14848.,4.8,0.,4.8,0.,4.8
1980-11-14 03:12:10.060 ,3,0,0.,4.8,14592.,4.8,0.,4.8,0.,4.8
1980-11-14 03:12:14.860 ,3,0,0.,4.8,14336.,4.8,0.,4.8,0.,4.8
1980-11-14 03:12:19.660 ,3,0,0.,4.8,14592.,4.8,0.,4.8,0.,4.8
1980-11-14 03:12:24.460 ,3,0,0.,4.8,14848.,4.8,0.,4.8,0.,4.8
1980-11-14 03:12:29.260 ,3,0,0.,4.8,14592.,4.8,0.,4.8,0.,4.8
1980-11-14 03:12:34.060 ,3,0,0.,4.8,14848.,4.8,0.,4.8,0.,4.8
1980-11-14 03:12:38.860 ,4,0,0.,4.8,15104.,4.8,0.,4.8,0.,4.8
1980-11-14 03:12:43.660 ,4,0,0.,4.8,14848.,4.8,0.,4.8,0.,4.8
1980-11-14 03:12:48.460 ,4,0,0.,4.8,14592.,4.8,0.,4.8,0.,4.8
1980-11-14 03:12:53.260 ,4,0,0.,4.8,15360.,4.8,0.,4.8,0.,4.8
1980-11-14 03:12:58.060 ,4,0,0.,4.8,16128.,4.8,0.,4.8,0.,4.8
1980-11-14 03:13:02.860 ,4,0,0.,4.8,15104.,4.8,0.,4.8,0.,4.8
1980-11-14 03:13:07.660 ,4,0,0.,4.8,14080.,4.8,0.,4.8,0.,4.8
1980-11-14 03:13:12.460 ,4,0,0.,4.8,14336.,4.8,0.,4.8,0.,4.8
1980-11-14 03:13:17.260 ,4,0,0.,4.8,14336.,4.8,0.,4.8,0.,4.8
1980-11-14 03:13:22.060 ,4,0,0.,4.8,14080.,4.8,0.,4.8,0.,4.8
1980-11-14 03:13:26.860 ,5,0,0.,4.8,14336.,4.8,0.,4.8,0.,4.8
1980-11-14 03:13:31.660 ,5,0,0.,4.8,14592.,4.8,0.,4.8,0.,4.8
1980-11-14 03:13:36.460 ,5,0,0.,4.8,15104.,4.8,0.,4.8,0.,4.8
1980-11-14 03:13:41.260 ,5,0,0.,4.8,14336.,4.8,0.,4.8,0.,4.8
1980-11-14 03:13:46.060 ,5,0,0.,4.8,15360.,4.8,0.,4.8,0.,4.8
1980-11-14 03:13:50.860 ,5,0,0.,4.8,14336.,4.8,0.,4.8,0.,4.8
1980-11-14 03:13:55.660 ,5,0,0.,4.8,14592.,4.8,0.,4.8,0.,4.8
1980-11-14 03:14:00.460 ,5,0,0.,4.8,14848.,4.8,0.,4.8,0.,4.8
1980-11-14 03:14:05.260 ,5,0,0.,4.8,15360.,4.8,0.,4.8,0.,4.8
1980-11-14 03:14:10.060 ,5,0,0.,4.8,15104.,4.8,0.,4.8,0.,4.8
1980-11-14 03:14:14.860 ,6,0,0.,4.8,15104.,4.8,0.,4.8,0.,4.8
1980-11-14 03:14:19.660 ,6,0,0.,4.8,13568.,4.8,0.,4.8,0.,4.8
1980-11-14 03:14:24.460 ,6,0,0.,4.8,13312.,4.8,0.,4.8,0.,4.8
1980-11-14 03:14:29.260 ,6,0,0.,4.8,13824.,4.8,0.,4.8,0.,4.8
1980-11-14 03:14:34.060 ,6,0,0.,4.8,13056.,4.8,0.,4.8,0.,4.8
1980-11-14 03:14:38.860 ,6,0,0.,4.8,13568.,4.8,0.,4.8,0.,4.8
1980-11-14 03:14:43.660 ,6,0,0.,4.8,14080.,4.8,0.,4.8,0.,4.8
1980-11-14 03:14:48.460 ,6,0,0.,4.8,14592.,4.8,0.,4.8,0.,4.8
1980-11-14 03:14:53.260 ,6,0,0.,4.8,14336.,4.8,0.,4.8,0.,4.8
1980-11-14 03:14:58.060 ,6,0,0.,4.8,14336.,4.8,0.,4.8,0.,4.8
1980-11-14 03:15:02.860 ,7,0,0.,4.8,14592.,4.8,0.,4.8,0.,4.8
1980-11-14 03:15:07.660 ,7,0,0.,4.8,14080.,4.8,0.,4.8,0.,4.8
1980-11-14 03:15:12.460 ,7,0,0.,4.8,14080.,4.8,0.,4.8,0.,4.8
1980-11-14 03:15:17.260 ,7,0,0.,4.8,14080.,4.8,0.,4.8,0.,4.8
1980-11-14 03:15:22.060 ,7,0,0.,4.8,14592.,4.8,0.,4.8,0.,4.8
1980-11-14 03:15:26.860 ,7,0,0.,4.8,14848.,4.8,0.,4.8,0.,4.8
1980-11-14 03:15:31.660 ,7,0,0.,4.8,14336.,4.8,0.,4.8,0.,4.8
1980-11-14 03:15:36.460 ,7,0,0.,4.8,14848.,4.8,0.,4.8,0.,4.8
1980-11-14 03:15:41.260 ,7,0,0.,4.8,13568.,4.8,0.,4.8,0.,4.8
1980-11-14 03:15:46.060 ,7,0,0.,4.8,14336.,4.8,0.,4.8,0.,4.8
1980-11-14 03:15:50.860 ,7,0,0.,4.8,14848.,4.8,0.,4.8,0.,4.8
1980-11-14 03:15:55.660 ,7,0,0.,4.8,15616.,4.8,0.,4.8,0.,4.8
1980-11-14 03:16:00.460 ,7,0,0.,4.8,14848.,4.8,0.,4.8,0.,4.8
1980-11-14 03:16:05.260 ,7,0,0.,4.8,15360.,4.8,0.,4.8,0.,4.8
1980-11-14 03:16:10.060 ,7,0,0.,4.8,15104.,4.8,0.,4.8,0.,4.8
1980-11-14 03:16:14.860 ,7,0,0.,4.8,15104.,4.8,0.,4.8,0.,4.8
1980-11-14 03:16:19.660 ,7,0,0.,4.8,15104.,4.8,0.,4.8,0.,4.8
1980-11-14 03:16:24.460 ,7,0,0.,4.8,14336.,4.8,0.,4.8,0.,4.8
1980-11-14 03:16:29.260 ,7,0,0.,4.8,13824.,4.8,0.,4.8,0.,4.8
1980-11-14 03:16:34.060 ,7,0,0.,4.8,13312.,4.8,0.,4.8,0.,4.8
1980-11-14 03:16:38.860 ,6,0,0.,4.8,14592.,4.8,0.,4.8,0.,4.8
1980-11-14 03:16:43.660 ,6,0,0.,4.8,14336.,4.8,0.,4.8,0.,4.8
1980-11-14 03:16:48.460 ,6,0,0.,4.8,14848.,4.8,0.,4.8,0.,4.8
1980-11-14 03:16:53.260 ,6,0,0.,4.8,13568.,4.8,0.,4.8,0.,4.8
1980-11-14 03:16:58.060 ,6,0,0.,4.8,13824.,4.8,0.,4.8,0.,4.8
1980-11-14 03:17:02.860 ,6,0,0.,4.8,14080.,4.8,0.,4.8,0.,4.8
1980-11-14 03:17:07.660 ,6,0,0.,4.8,14336.,4.8,0.,4.8,0.,4.8
1980-11-14 03:17:12.460 ,6,0,0.,4.8,14080.,4.8,1.,4.8,0.,4.8
1980-11-14 03:17:17.260 ,6,0,0.,4.8,13824.,4.8,0.,4.8,0.,4.8
1980-11-14 03:17:22.060 ,6,0,0.,4.8,13824.,4.8,0.,4.8,0.,4.8
1980-11-14 03:17:26.860 ,5,0,0.,4.8,14336.,4.8,0.,4.8,0.,4.8
1980-11-14 03:17:31.660 ,5,0,0.,4.8,14336.,4.8,0.,4.8,0.,4.8
1980-11-14 03:17:36.460 ,5,0,0.,4.8,14336.,4.8,0.,4.8,0.,4.8
1980-11-14 03:17:41.260 ,5,0,0.,4.8,14080.,4.8,0.,4.8,0.,4.8
1980-11-14 03:17:46.060 ,5,0,0.,4.8,14336.,4.8,0.,4.8,0.,4.8
1980-11-14 03:17:50.860 ,5,0,0.,4.8,14080.,4.8,0.,4.8,0.,4.8
1980-11-14 03:17:55.660 ,5,0,0.,4.8,13312.,4.8,0.,4.8,0.,4.8
1980-11-14 03:18:00.460 ,5,0,0.,4.8,13056.,4.8,0.,4.8,0.,4.8
1980-11-14 03:18:05.260 ,5,0,0.,4.8,14080.,4.8,0.,4.8,0.,4.8
1980-11-14 03:18:10.060 ,5,0,0.,4.8,14336.,4.8,0.,4.8,0.,4.8
1980-11-14 03:18:14.860 ,4,0,0.,4.8,13824.,4.8,0.,4.8,0.,4.8
1980-11-14 03:18:19.660 ,4,0,0.,4.8,13824.,4.8,0.,4.8,0.,4.8
1980-11-14 03:18:24.460 ,4,0,0.,4.8,13824.,4.8,0.,4.8,0.,4.8
1980-11-14 03:18:29.260 ,4,0,0.,4.8,11776.,4.8,0.,4.8,0.,4.8
1980-11-14 03:18:34.060 ,4,0,0.,4.8,13056.,4.8,0.,4.8,0.,4.8
1980-11-14 03:18:38.860 ,4,0,0.,4.8,13824.,4.8,0.,4.8,0.,4.8
1980-11-14 03:18:43.660 ,4,0,0.,4.8,13824.,4.8,0.,4.8,0.,4.8
1980-11-14 03:18:48.460 ,4,0,0.,4.8,14080.,4.8,0.,4.8,0.,4.8
1980-11-14 03:18:53.260 ,4,0,0.,4.8,13824.,4.8,0.,4.8,0.,4.8
1980-11-14 03:18:58.060 ,4,0,0.,4.8,14336.,4.8,0.,4.8,0.,4.8
1980-11-14 03:19:02.860 ,3,0,0.,4.8,15616.,4.8,0.,4.8,0.,4.8
1980-11-14 03:19:07.660 ,3,0,0.,4.8,15104.,4.8,0.,4.8,0.,4.8
1980-11-14 03:19:12.460 ,3,0,0.,4.8,14080.,4.8,0.,4.8,0.,4.8
1980-11-14 03:19:17.260 ,3,0,0.,4.8,15104.,4.8,0.,4.8,0.,4.8
1980-11-14 03:19:22.060 ,3,0,0.,4.8,14848.,4.8,0.,4.8,0.,4.8
1980-11-14 03:19:26.860 ,3,0,0.,4.8,13312.,4.8,0.,4.8,0.,4.8
1980-11-14 03:19:31.660 ,3,0,0.,4.8,13824.,4.8,0.,4.8,0.,4.8
1980-11-14 03:19:36.460 ,3,0,0.,4.8,13568.,4.8,0.,4.8,0.,4.8
1980-11-14 03:19:41.260 ,3,0,0.,4.8,14336.,4.8,0.,4.8,0.,4.8
1980-11-14 03:19:46.060 ,3,0,0.,4.8,15104.,4.8,0.,4.8,0.,4.8
1980-11-14 03:19:50.860 ,2,0,0.,4.8,13568.,4.8,0.,4.8,0.,4.8
1980-11-14 03:19:55.660 ,2,0,0.,4.8,13056.,4.8,1.,4.8,0.,4.8
1980-11-14 03:20:00.460 ,2,0,0.,4.8,13568.,4.8,0.,4.8,0.,4.8
1980-11-14 03:20:05.260 ,2,0,0.,4.8,11264.,4.8,0.,4.8,0.,4.8
1980-11-14 03:20:10.060 ,2,0,0.,4.8,10496.,4.8,0.,4.8,0.,4.8
1980-11-14 03:20:14.860 ,2,0,0.,4.8,12544.,4.8,0.,4.8,0.,4.8
1980-11-14 03:20:19.660 ,2,0,0.,4.8,13568.,4.8,0.,4.8,0.,4.8
1980-11-14 03:20:24.460 ,2,0,0.,4.8,13056.,4.8,0.,4.8,0.,4.8
1980-11-14 03:20:29.260 ,2,0,0.,4.8,13824.,4.8,0.,4.8,0.,4.8
1980-11-14 03:20:34.060 ,2,0,0.,4.8,13312.,4.8,0.,4.8,0.,4.8
1980-11-14 03:20:38.860 ,1,0,0.,4.8,13568.,4.8,0.,4.8,0.,4.8
1980-11-14 03:20:43.660 ,1,0,0.,4.8,13568.,4.8,0.,4.8,0.,4.8
1980-11-14 03:20:48.460 ,1,0,0.,4.8,13568.,4.8,0.,4.8,0.,4.8
1980-11-14 03:20:53.260 ,1,0,0.,4.8,12800.,4.8,0.,4.8,0.,4.8
1980-11-14 03:20:58.060 ,1,0,0.,4.8,13312.,4.8,0.,4.8,0.,4.8
1980-11-14 03:21:02.860 ,1,0,0.,4.8,14080.,4.8,0.,4.8,0.,4.8
1980-11-14 03:21:07.660 ,1,0,0.,4.8,14080.,4.8,0.,4.8,0.,4.8
1980-11-14 03:21:12.460 ,1,0,0.,4.8,13824.,4.8,0.,4.8,0.,4.8
1980-11-14 03:21:17.260 ,1,0,0.,4.8,14592.,4.8,0.,4.8,0.,4.8
1980-11-14 03:21:22.060 ,1,0,0.,4.8,14080.,4.8,0.,4.8,0.,4.8
1980-11-14 03:21:26.860 ,0,0,0.,4.8,14592.,4.8,0.,4.8,0.,4.8
1980-11-14 03:21:31.660 ,0,0,0.,4.8,14592.,4.8,0.,4.8,0.,4.8
1980-11-14 03:21:36.460 ,0,0,0.,4.8,14848.,4.8,0.,4.8,0.,4.8
1980-11-14 03:21:41.260 ,0,0,0.,4.8,14336.,4.8,0.,4.8,0.,4.8
1980-11-14 03:21:46.060 ,0,0,0.,4.8,14336.,4.8,0.,4.8,0.,4.8
1980-11-14 03:21:50.860 ,0,0,0.,4.8,15104.,4.8,0.,4.8,0.,4.8
1980-11-14 03:21:55.660 ,0,0,0.,4.8,14592.,4.8,0.,4.8,0.,4.8
1980-11-14 03:22:00.460 ,0,0,0.,4.8,14592.,4.8,0.,4.8,0.,4.8
1980-11-14 03:22:05.260 ,0,0,0.,4.8,15104.,4.8,0.,4.8,0.,4.8
1980-11-14 03:22:10.060 ,0,0,0.,4.8,14848.,4.8,0.,4.8,0.,4.8
1980-11-14 03:22:14.860 ,0,0,0.,4.8,14848.,4.8,0.,4.8,0.,4.8
1980-11-14 03:22:19.660 ,0,0,0.,4.8,14336.,4.8,0.,4.8,0.,4.8
1980-11-14 03:22:24.460 ,0,0,0.,4.8,14336.,4.8,0.,4.8,0.,4.8
1980-11-14 03:22:29.260 ,0,0,0.,4.8,13568.,4.8,0.,4.8,0.,4.8
1980-11-14 03:22:34.060 ,0,0,0.,4.8,13056.,4.8,0.,4.8,0.,4.8
1980-11-14 03:22:38.860 ,0,0,0.,4.8,13568.,4.8,0.,4.8,0.,4.8
1980-11-14 03:22:43.660 ,0,0,0.,4.8,13568.,4.8,0.,4.8,0.,4.8
1980-11-14 03:22:48.460 ,0,0,0.,4.8,13824.,4.8,0.,4.8,0.,4.8
1980-11-14 03:22:53.260 ,0,0,0.,4.8,13312.,4.8,0.,4.8,0.,4.8
1980-11-14 03:22:58.060 ,0,0,0.,4.8,13568.,4.8,0.,4.8,0.,4.8
1980-11-14 03:23:02.860 ,1,0,0.,4.8,14336.,4.8,0.,4.8,0.,4.8
1980-11-14 03:23:07.660 ,1,0,0.,4.8,14080.,4.8,0.,4.8,0.,4.8
1980-11-14 03:23:12.460 ,1,0,0.,4.8,14336.,4.8,0.,4.8,0.,4.8
1980-11-14 03:23:17.260 ,1,0,0.,4.8,14592.,4.8,0.,4.8,0.,4.8
1980-11-14 03:23:22.060 ,1,0,0.,4.8,14592.,4.8,0.,4.8,0.,4.8
1980-11-14 03:23:26.860 ,1,0,0.,4.8,14080.,4.8,1.,4.8,0.,4.8
1980-11-14 03:23:31.660 ,1,0,0.,4.8,14592.,4.8,0.,4.8,0.,4.8
1980-11-14 03:23:36.460 ,1,0,0.,4.8,14592.,4.8,0.,4.8,0.,4.8
1980-11-14 03:23:41.260 ,1,0,0.,4.8,14336.,4.8,0.,4.8,0.,4.8
1980-11-14 03:23:46.060 ,1,0,0.,4.8,14336.,4.8,0.,4.8,0.,4.8
1980-11-14 03:23:50.860 ,2,0,0.,4.8,14336.,4.8,0.,4.8,0.,4.8
1980-11-14 03:23:55.660 ,2,0,0.,4.8,14336.,4.8,0.,4.8,0.,4.8
1980-11-14 03:24:00.460 ,2,0,0.,4.8,14848.,4.8,0.,4.8,0.,4.8
1980-11-14 03:24:05.260 ,2,0,0.,4.8,14592.,4.8,0.,4.8,0.,4.8
1980-11-14 03:24:10.060 ,2,0,0.,4.8,13824.,4.8,0.,4.8,0.,4.8
1980-11-14 03:24:14.860 ,2,0,0.,4.8,14080.,4.8,0.,4.8,0.,4.8
1980-11-14 03:24:19.660 ,2,0,0.,4.8,13824.,4.8,0.,4.8,0.,4.8
1980-11-14 03:24:24.460 ,2,0,0.,4.8,14592.,4.8,0.,4.8,0.,4.8
1980-11-14 03:24:29.260 ,2,0,0.,4.8,14592.,4.8,0.,4.8,0.,4.8
1980-11-14 03:24:34.060 ,2,0,0.,4.8,14080.,4.8,0.,4.8,0.,4.8
1980-11-14 03:24:38.860 ,3,0,0.,4.8,14336.,4.8,0.,4.8,0.,4.8
1980-11-14 03:24:43.660 ,3,0,0.,4.8,14848.,4.8,0.,4.8,0.,4.8
1980-11-14 03:24:48.460 ,3,0,0.,4.8,14336.,4.8,0.,4.8,0.,4.8
1980-11-14 03:24:53.260 ,3,0,0.,4.8,15616.,4.8,0.,4.8,0.,4.8
1980-11-14 03:24:58.060 ,3,0,0.,4.8,15872.,4.8,1.,4.8,0.,4.8
1980-11-14 03:25:02.860 ,3,0,0.,4.8,14848.,4.8,0.,4.8,0.,4.8
1980-11-14 03:25:07.660 ,3,0,0.,4.8,14336.,4.8,0.,4.8,0.,4.8
1980-11-14 03:25:12.460 ,3,0,0.,4.8,14592.,4.8,0.,4.8,0.,4.8
1980-11-14 03:25:17.260 ,3,0,0.,4.8,14848.,4.8,0.,4.8,0.,4.8
1980-11-14 03:25:22.060 ,3,0,0.,4.8,15360.,4.8,0.,4.8,0.,4.8
1980-11-14 03:25:26.860 ,4,0,0.,4.8,15104.,4.8,0.,4.8,0.,4.8
1980-11-14 03:25:31.660 ,4,0,0.,4.8,14848.,4.8,0.,4.8,0.,4.8
1980-11-14 03:25:36.460 ,4,0,0.,4.8,14336.,4.8,0.,4.8,0.,4.8
1980-11-14 03:25:41.260 ,4,0,0.,4.8,15104.,4.8,0.,4.8,0.,4.8
1980-11-14 03:25:46.060 ,4,0,0.,4.8,14336.,4.8,0.,4.8,0.,4.8
1980-11-14 03:25:50.860 ,4,0,0.,4.8,15104.,4.8,0.,4.8,0.,4.8
1980-11-14 03:25:55.660 ,4,0,0.,4.8,15104.,4.8,0.,4.8,0.,4.8
1980-11-14 03:26:00.460 ,4,0,0.,4.8,14080.,4.8,0.,4.8,0.,4.8
1980-11-14 03:26:05.260 ,4,0,0.,4.8,14080.,4.8,0.,4.8,0.,4.8
1980-11-14 03:26:10.060 ,4,0,0.,4.8,13824.,4.8,0.,4.8,0.,4.8
1980-11-14 03:26:14.860 ,5,0,0.,4.8,13568.,4.8,0.,4.8,0.,4.8
1980-11-14 03:26:19.660 ,5,0,0.,4.8,14592.,4.8,0.,4.8,0.,4.8
1980-11-14 03:26:24.460 ,5,0,0.,4.8,13824.,4.8,0.,4.8,0.,4.8
1980-11-14 03:26:29.260 ,5,0,0.,4.8,14336.,4.8,0.,4.8,0.,4.8
1980-11-14 03:26:34.060 ,5,0,0.,4.8,14080.,4.8,0.,4.8,0.,4.8
1980-11-14 03:26:38.860 ,5,0,0.,4.8,14848.,4.8,0.,4.8,0.,4.8
1980-11-14 03:26:43.660 ,5,0,0.,4.8,14848.,4.8,0.,4.8,0.,4.8
1980-11-14 03:26:48.460 ,5,0,0.,4.8,14592.,4.8,0.,4.8,0.,4.8
1980-11-14 03:26:53.260 ,5,0,0.,4.8,14080.,4.8,0.,4.8,0.,4.8
1980-11-14 03:26:58.060 ,5,0,0.,4.8,14592.,4.8,0.,4.8,0.,4.8
1980-11-14 03:27:02.860 ,6,0,0.,4.8,14080.,4.8,0.,4.8,0.,4.8
1980-11-14 03:27:07.660 ,6,0,0.,4.8,13056.,4.8,0.,4.8,0.,4.8
1980-11-14 03:27:12.460 ,6,0,0.,4.8,13312.,4.8,0.,4.8,0.,4.8
1980-11-14 03:27:17.260 ,6,0,0.,4.8,14336.,4.8,0.,4.8,0.,4.8
1980-11-14 03:27:22.060 ,6,0,0.,4.8,14336.,4.8,0.,4.8,0.,4.8
1980-11-14 03:27:26.860 ,6,0,0.,4.8,14080.,4.8,0.,4.8,0.,4.8
1980-11-14 03:27:31.660 ,6,0,0.,4.8,13824.,4.8,0.,4.8,0.,4.8
1980-11-14 03:27:36.460 ,6,0,0.,4.8,14336.,4.8,0.,4.8,0.,4.8
1980-11-14 03:27:41.260 ,6,0,0.,4.8,14848.,4.8,0.,4.8,0.,4.8
1980-11-14 03:27:46.060 ,6,0,0.,4.8,14592.,4.8,0.,4.8,0.,4.8
1980-11-14 03:27:50.860 ,7,0,0.,4.8,15360.,4.8,0.,4.8,0.,4.8
1980-11-14 03:27:55.660 ,7,0,0.,4.8,14592.,4.8,0.,4.8,0.,4.8
1980-11-14 03:28:00.460 ,7,0,0.,4.8,14848.,4.8,0.,4.8,0.,4.8
1980-11-14 03:28:05.260 ,7,0,0.,4.8,14848.,4.8,0.,4.8,0.,4.8
1980-11-14 03:28:10.060 ,7,0,0.,4.8,14336.,4.8,0.,4.8,0.,4.8
1980-11-14 03:28:14.860 ,0,0,0.,4.8,14848.,4.8,0.,4.8,0.,4.8
1980-11-14 03:28:19.660 ,0,0,0.,4.8,15360.,4.8,0.,4.8,0.,4.8
1980-11-14 03:28:24.460 ,0,0,0.,4.8,15360.,4.8,0.,4.8,0.,4.8
1980-11-14 03:28:29.260 ,0,0,0.,4.8,15104.,4.8,0.,4.8,0.,4.8
1980-11-14 03:28:34.060 ,0,0,,0,,0,,0,,0
1980-11-14 03:32:32.860 ,0,0,,0,,0,,0,,0
1980-11-14 03:32:37.660 ,0,0,,0,,0,,0,,0
1980-11-14 03:32:42.460 ,0,0,,0,,0,,0,,0
1980-11-14 03:32:47.260 ,0,0,0.,4.8,15104.,4.8,0.,4.8,0.,4.8
1980-11-14 03:32:52.060 ,0,0,0.,4.8,14848.,4.8,0.,4.8,0.,4.8
1980-11-14 03:32:38.860 ,2,0,0.,4.8,13824.,4.8,0.,4.8,0.,4.8
1980-11-14 03:32:43.660 ,2,0,0.,4.8,14848.,4.8,0.,4.8,0.,4.8
1980-11-14 03:32:48.460 ,2,0,0.,4.8,14592.,4.8,0.,4.8,0.,4.8
1980-11-14 03:32:53.260 ,2,0,0.,4.8,13824.,4.8,0.,4.8,0.,4.8
1980-11-14 03:32:58.060 ,2,0,0.,4.8,14080.,4.8,0.,4.8,0.,4.8
1980-11-14 03:33:02.860 ,2,0,0.,4.8,14592.,4.8,0.,4.8,0.,4.8
1980-11-14 03:33:07.660 ,2,0,0.,4.8,14848.,4.8,0.,4.8,0.,4.8
1980-11-14 03:33:12.460 ,2,0,0.,4.8,13824.,4.8,0.,4.8,0.,4.8
1980-11-14 03:33:17.260 ,2,0,0.,4.8,13824.,4.8,0.,4.8,0.,4.8
1980-11-14 03:33:22.060 ,2,0,0.,4.8,14848.,4.8,0.,4.8,0.,4.8
1980-11-14 03:33:26.860 ,1,0,0.,4.8,13824.,4.8,0.,4.8,0.,4.8
1980-11-14 03:33:31.660 ,1,0,0.,4.8,13056.,4.8,0.,4.8,0.,4.8
1980-11-14 03:33:36.460 ,1,0,0.,4.8,14080.,4.8,0.,4.8,0.,4.8
1980-11-14 03:33:41.260 ,1,0,0.,4.8,13824.,4.8,0.,4.8,0.,4.8
1980-11-14 03:33:46.060 ,1,0,0.,4.8,13312.,4.8,0.,4.8,0.,4.8
1980-11-14 03:33:50.860 ,1,0,0.,4.8,13568.,4.8,0.,4.8,0.,4.8
1980-11-14 03:33:55.660 ,1,0,0.,4.8,14336.,4.8,0.,4.8,0.,4.8
1980-11-14 03:34:00.460 ,1,0,0.,4.8,13568.,4.8,0.,4.8,0.,4.8
1980-11-14 03:34:05.260 ,1,0,0.,4.8,14080.,4.8,0.,4.8,0.,4.8
1980-11-14 03:34:10.060 ,1,0,0.,4.8,13824.,4.8,0.,4.8,0.,4.8
1980-11-14 03:34:14.860 ,0,0,0.,4.8,13568.,4.8,0.,4.8,0.,4.8
1980-11-14 03:34:19.660 ,0,0,0.,4.8,14080.,4.8,0.,4.8,0.,4.8
1980-11-14 03:34:24.460 ,0,0,0.,4.8,13568.,4.8,0.,4.8,0.,4.8
1980-11-14 03:34:29.260 ,0,0,0.,4.8,14336.,4.8,0.,4.8,0.,4.8
1980-11-14 03:34:34.060 ,0,0,0.,4.8,14336.,4.8,0.,4.8,0.,4.8
1980-11-14 03:34:38.860 ,0,0,0.,4.8,14080.,4.8,0.,4.8,0.,4.8
1980-11-14 03:34:43.660 ,0,0,0.,4.8,14080.,4.8,0.,4.8,0.,4.8
1980-11-14 03:34:48.460 ,0,0,0.,4.8,13568.,4.8,0.,4.8,0.,4.8
1980-11-14 03:34:53.260 ,0,0,0.,4.8,13056.,4.8,0.,4.8,0.,4.8
1980-11-14 03:34:58.060 ,0,0,0.,4.8,13568.,4.8,0.,4.8,0.,4.8
1980-11-14 03:35:02.860 ,0,0,0.,4.8,14592.,4.8,0.,4.8,0.,4.8
1980-11-14 03:35:07.660 ,0,0,0.,4.8,13824.,4.8,0.,4.8,0.,4.8
1980-11-14 03:35:12.460 ,0,0,0.,4.8,14080.,4.8,0.,4.8,0.,4.8
1980-11-14 03:35:17.260 ,0,0,0.,4.8,12544.,4.8,0.,4.8,0.,4.8
1980-11-14 03:35:22.060 ,0,0,0.,4.8,14080.,4.8,0.,4.8,0.,4.8
1980-11-14 03:35:26.860 ,0,0,0.,4.8,13056.,4.8,0.,4.8,0.,4.8
1980-11-14 03:35:31.660 ,0,0,0.,4.8,13312.,4.8,0.,4.8,0.,4.8
1980-11-14 03:35:36.460 ,0,0,0.,4.8,13824.,4.8,0.,4.8,0.,4.8
1980-11-14 03:35:41.260 ,0,0,0.,4.8,14336.,4.8,0.,4.8,0.,4.8
1980-11-14 03:35:46.060 ,0,0,0.,4.8,14080.,4.8,0.,4.8,0.,4.8
1980-11-14 03:35:50.860 ,1,0,0.,4.8,13824.,4.8,0.,4.8,0.,4.8
1980-11-14 03:35:55.660 ,1,0,0.,4.8,13056.,4.8,0.,4.8,0.,4.8
1980-11-14 03:36:00.460 ,1,0,0.,4.8,12800.,4.8,0.,4.8,0.,4.8
1980-11-14 03:36:05.260 ,1,0,0.,4.8,13056.,4.8,0.,4.8,0.,4.8
1980-11-14 03:36:10.060 ,1,0,0.,4.8,13568.,4.8,0.,4.8,0.,4.8
1980-11-14 03:36:14.860 ,1,0,0.,4.8,13568.,4.8,0.,4.8,0.,4.8
1980-11-14 03:36:19.660 ,1,0,0.,4.8,13312.,4.8,0.,4.8,0.,4.8
1980-11-14 03:36:24.460 ,1,0,0.,4.8,12288.,4.8,0.,4.8,0.,4.8
1980-11-14 03:36:29.260 ,1,0,0.,4.8,13312.,4.8,0.,4.8,0.,4.8
1980-11-14 03:36:34.060 ,1,0,0.,4.8,12544.,4.8,0.,4.8,0.,4.8
1980-11-14 03:36:38.860 ,2,0,0.,4.8,12800.,4.8,0.,4.8,0.,4.8
1980-11-14 03:36:43.660 ,2,0,0.,4.8,12288.,4.8,0.,4.8,0.,4.8
1980-11-14 03:36:48.460 ,2,0,0.,4.8,13056.,4.8,0.,4.8,0.,4.8
1980-11-14 03:36:53.260 ,2,0,0.,4.8,12288.,4.8,0.,4.8,0.,4.8
1980-11-14 03:36:58.060 ,2,0,0.,4.8,12288.,4.8,0.,4.8,0.,4.8
1980-11-14 03:37:02.860 ,2,0,0.,4.8,12800.,4.8,0.,4.8,0.,4.8
1980-11-14 03:37:07.660 ,2,0,0.,4.8,13312.,4.8,0.,4.8,0.,4.8